Regional Weather Roundup
Issued by NWS

Home | Current Version | Previous Version | Graphics & Text | Print | Product List | Glossary On
Versions: 1 2 3 4 5 6 7 8 9 10 11 12 13 14 15 16 17 18 19 20 21 22 23 24 25 26 27 28 29 30 31 32 33 34 35 36 37 38 39 40 41 42 43 44 45 46 47 48 49 50
000
ASUS43 KOAX 051302
RWRNE

WEATHER ROUNDUP FOR NEBRASKA
NATIONAL WEATHER SERVICE OMAHA NE
700 AM CST THU MAR 05 2015

NOTES: SATELLITE DATA IS BEING USED TO AUGMENT CLOUD COVER ABOVE
       12000 FEET.
       "FAIR" INDICATES FEW OR NO CLOUDS BELOW 12,000 FEET WITH NO
       SIGNIFICANT WEATHER AND/OR OBSTRUCTIONS TO VISIBILITY.

  * THESE STATIONS DO NOT REPORT WEATHER SUCH AS RAIN...SNOW OR FOG.

NEZ001>004-019>022-054>056-051400-
NEBRASKA PANHANDLE

CITY           SKY/WX    TMP DP  RH WIND       PRES   REMARKS
SCOTTSBLUFF    PTCLDY     6   0  76 N3        30.19R
ALLIANCE       PTCLDY    -1  -7  75 W7        30.16S WCI -14
CHADRON        MOCLDY    -7 -13  75 W6        30.19S WCI -20
KIMBALL        CLEAR     11   5  79 SW9       30.14F WCI  -2
SIDNEY         CLEAR     10   3  73 W9        30.19R WCI  -3
$$

NEZ057>060-069>072-079>082-051400-
SOUTHWEST NEBRASKA

CITY           SKY/WX    TMP DP  RH WIND       PRES   REMARKS
NORTH PLATTE   PTCLDY     0  -5  79 E5        30.32S WCI -10
IMPERIAL         N/A      5   0  79 CALM      30.28R
LEXINGTON      PTCLDY     3  -1  83 CALM      30.37S
MCCOOK         PTCLDY     7   0  73 E5        30.35R WCI  -2
$$

NEZ005>010-023>029-035>040-094-051400-
NORTH CENTRAL NEBRASKA

CITY           SKY/WX    TMP DP  RH WIND       PRES   REMARKS
VALENTINE      PTCLDY    -1  -6  79 CALM      30.27S
AINSWORTH      PTCLDY     1  -3  80 S7        30.29S WCI -11
BROKEN BOW     PTCLDY    -2  -8  76 CALM      30.34S
ORD            PTCLDY    -3  -9  75 CALM      30.38S
$$

NEZ041-046>049-061>064-073>077-083>087-051400-
SOUTH CENTRAL NEBRASKA

CITY           SKY/WX    TMP DP  RH WIND       PRES   REMARKS
GRAND ISLAND   PTCLDY     3  -4  72 S7        30.44R WCI  -9
HASTINGS       FAIR       7  -3  64 S5        30.41S WCI  -2
HEBRON         CLEAR      3  -3  77 CALM      30.49S
KEARNEY *      PTCLDY     5   0  78 CALM      30.40R
$$

NEZ011>018-030>034-042>045-051400-
NORTHEAST NEBRASKA

CITY           SKY/WX    TMP DP  RH WIND       PRES   REMARKS
NORFOLK        PTCLDY    -3  -9  75 CALM      30.44S
BLAIR          CLEAR      3  -4  70 CALM      30.48S
COLUMBUS *     CLEAR     -2 -13  60 CALM      30.47S
FREMONT        CLEAR      2  -5  74 CALM      30.51R
TEKAMAH        CLEAR      0  -7  72 CALM      30.53S
$$

NEZ050>053-065>068-078-088>093-051400-
SOUTHEAST NEBRASKA

CITY           SKY/WX    TMP DP  RH WIND       PRES   REMARKS
LINCOLN        CLEAR      1  -4  79 N3        30.52R
OMAHA EPPLEY   CLEAR      4  -1  80 CALM      30.54R
FALLS CITY     FAIR       3  -3  76 CALM      30.55R
$$

NEZ044-045-051>053-067-051400-
OMAHA AREA

CITY           SKY/WX    TMP DP  RH WIND       PRES   REMARKS
OMAHA EPPLEY   CLEAR      4  -1  80 CALM      30.54R
BLAIR          CLEAR      3  -4  70 CALM      30.48S
FREMONT        CLEAR      2  -5  74 CALM      30.51R
OFFUTT AFB     CLEAR      1  -3  82 CALM      30.52S
$$



USA.gov is the U.S. government's official web portal to all federal, state and local government web resources and services.